Content
SEND FEEDBACK

Daily
Averages
Monthly
Summary
United States of America

CHESTERFIELD, MISSOURI


Home > North America > United States > Missouri
Elevation: 559 feet     Latitude: 38 41N     Longitude: 090 31W

WEATHER
 
SELECT A DAY
Number of Records: 207,547;   Date Range: 1/1/95 - 11/26/14
 
SHARE

PRINT THIS DATA

[ ← Previous Day ]
WEATHER ALMANAC - JULY 4, 2013
[ Next Day → ]
[ °C ]   °F
Weather ElementAverageHighLow
Temperature76 °F82.9 °F (12:51 pm)64.9 °F (5:51 am)
Dewpoint58.5 °F61 °F (11:51 pm)57 °F (9:51 am)
Humidity55.9 %79 % (6:51 am)42 % (5:51 pm)
Barometer30.04 in30.08 in (10:51 am)30.00 in (5:51 pm)
Wind Speed5.5 mph11.5 mph (3:51 pm)
Weather ElementAverage
Visibility9.6 mi
Wind DirectionESE (109.6 °)

Weather ElementTotal
Precipitation---
Cooling Degree Days8.9 (Base 65)
Growing Degree Days23.9 (Base 50)
Averaged from 23 records on July 4, 2013
WEATHER CONDITIONS BREAKOUT
WIND DIRECTION BREAKOUT
WEATHER BY HOUR - JULY 4, 2013
[ °C ]   °F
Local TimeTemperatureDewpointHumidityBarometerVisibilityWind DirectionWind SpeedGust SpeedPrecipitationEventsConditions
1:51 AM71.1 °F57.9 °F63 %30.04 in10.0 miSouth (180°)6.9 mphClear
2:51 AM69.1 °F57.9 °F68 %30.04 in10.0 miWSW (240°)4.6 mphClear
3:51 AM66.0 °F57.9 °F75 %30.04 in10.0 miESE (110°)5.8 mphClear
4:51 AM66.9 °F59.0 °F76 %30.05 in10.0 miCalmClear
5:51 AM64.9 °F57.9 °F78 %30.05 in9.0 miESE (120°)3.5 mphPartly Cloudy
6:51 AM66.9 °F60.1 °F79 %30.06 in9.0 miCalmClear
7:51 AM73.9 °F57.9 °F57 %30.07 in10.0 miCalmClear
8:51 AM77.0 °F57.9 °F52 %30.07 in10.0 miWSW (250°)3.5 mphPartly Cloudy
9:51 AM79.0 °F57.0 °F47 %30.07 in10.0 miSE (140°)3.5 mphPartly Cloudy
10:51 AM81.0 °F57.9 °F45 %30.08 in10.0 miSouth (180°)4.6 mphPartly Cloudy
11:51 AM81.0 °F60.1 °F49 %30.07 in10.0 miESE (110°)8.1 mphScattered Clouds
12:51 PM82.9 °F59.0 °F44 %30.06 in10.0 miVariable4.6 mphScattered Clouds
1:51 PM82.9 °F59.0 °F44 %30.05 in10.0 miESE (110°)6.9 mphScattered Clouds
2:51 PM82.0 °F57.9 °F44 %30.04 in10.0 miEast (90°)6.9 mphScattered Clouds
3:51 PM82.9 °F59.0 °F44 %30.02 in10.0 miESE (110°)11.5 mphScattered Clouds
4:51 PM82.9 °F59.0 °F44 %30.01 in10.0 miESE (120°)9.2 mphScattered Clouds
5:51 PM82.9 °F57.9 °F42 %30.00 in10.0 miESE (110°)9.2 mphPartly Cloudy
6:51 PM82.0 °F59.0 °F45 %30.00 in10.0 miESE (110°)9.2 mphPartly Cloudy
7:51 PM79.0 °F57.9 °F48 %30.00 in10.0 miEast (100°)8.1 mphScattered Clouds
8:51 PM75.9 °F57.9 °F54 %30.00 in10.0 miEast (100°)5.8 mphPartly Cloudy
9:51 PM73.9 °F57.9 °F57 %30.02 in10.0 miEast (90°)3.5 mphPartly Cloudy
10:51 PM73.0 °F59.0 °F61 %30.02 in8.0 miESE (120°)5.8 mphPartly Cloudy
11:51 PM71.1 °F61.0 °F70 %30.03 in5.0 miSE (130°)5.8 mphHaze
Hourly data recorded from KSTL, located miles away from Chesterfield, Missouri







STORIES FROM OUR PARTNERS